Ketchikan, AK

4:02 PM AKST on November 15, 2018 (GMT -0900)
Ketchikan International

Weather History for PAKT - December, 2017

Change the Weather History Date:

Saturday, December 16, 2017

  Actual Average Record
Temperature  
Mean Temperature 42 °F -  
Max Temperature 46 °F 40 °F 52 °F (1953)
Min Temperature 39 °F 31 °F 3 °F (1964)
Degree Days  
Heating Degree Days 22    
Moisture  
Dew Point 40 °F    
Average Humidity 91    
Maximum Humidity 97    
Minimum Humidity 82    
Precipitation  
Precipitation 1.14 in - - ()
Sea Level Pressure  
Sea Level Pressure 29.78 in    
Wind  
Wind Speed 16 mph (SE)    
Max Wind Speed 25 mph    
Max Gust Speed 36 mph    
Visibility 6 miles    
Events Rain    
Averages and records for this station are not official NWS values.
T = Trace of Precipitation, MM = Missing Value Source: NWS Daily Summary

Daily Weather History Graph

Daily Weather History Graph

Search for Another Location

Airport or City:

Astronomy

Dec. 16, 2017 Rise Set
Actual Time 8:09 AM AKST 3:16 PM AKST
Civil Twilight 7:23 AM AKST 4:02 PM AKST
Nautical Twilight 6:34 AM AKST 4:50 PM AKST
Astronomical Twilight 5:50 AM AKST 5:35 PM AKST
Moon 6:13 AM AKST 2:56 PM AKST
Length of Visible Light 8h 39m
Length of Day
7h 07m
Waning Crescent, 2% of the Moon is Illuminated
Dec 16
Waning Crescent
Dec 17
New
Dec 26
First Quarter
Jan 1
Full
Jan 8
Last Quarter

Hourly Weather History & Observations

Time (AKST) Temp. Windchill Dew Point Humidity Pressure Visibility Wind Dir Wind Speed Gust Speed Precip Events Conditions
12:53 AM 41.0 °F 33.1 °F 37.9 °F 89% 30.02 in 6.0 mi SE 15.0 mph 26.5 mph 0.04 in Rain Light Rain
1:28 AM 41.0 °F 31.9 °F 37.9 °F 89% 29.98 in 6.0 mi SE 19.6 mph 25.3 mph 0.02 in Rain Light Rain
1:49 AM 39.2 °F 31.2 °F 37.4 °F 93% 29.97 in 4.0 mi SE 13.8 mph - 0.06 in Rain Rain
1:53 AM 39.9 °F 31.8 °F 37.9 °F 93% 29.96 in 4.0 mi SE 15.0 mph 23.0 mph 0.07 in Rain Light Rain
2:53 AM 39.9 °F 30.8 °F 37.0 °F 89% 29.95 in 2.5 mi SE 18.4 mph - 0.13 in Rain Rain
3:24 AM 39.9 °F 30.5 °F 39.0 °F 97% 29.91 in 3.0 mi SE 19.6 mph - 0.05 in Rain Rain
3:40 AM 39.9 °F 31.4 °F 37.9 °F 93% 29.90 in 4.0 mi SE 16.1 mph - 0.10 in Rain Light Rain
3:53 AM 39.9 °F 30.2 °F 37.9 °F 93% 29.89 in 3.0 mi SE 20.7 mph 24.2 mph 0.12 in Rain Rain
4:08 AM 39.9 °F 30.8 °F 37.9 °F 93% 29.88 in 3.0 mi SE 18.4 mph 25.3 mph 0.01 in Rain Light Rain
4:45 AM 39.9 °F 30.2 °F 37.9 °F 93% 29.84 in 5.0 mi SE 20.7 mph 25.3 mph 0.07 in Rain Light Rain
4:53 AM 39.9 °F 30.8 °F 37.9 °F 93% 29.83 in 5.0 mi SE 18.4 mph 27.6 mph 0.08 in Rain Light Rain
5:53 AM 39.9 °F 29.7 °F 37.9 °F 93% 29.79 in 4.0 mi SE 23.0 mph 34.5 mph 0.14 in Rain Rain
6:03 AM 39.2 °F 29.0 °F 37.4 °F 93% 29.79 in 4.0 mi SE 21.9 mph 35.7 mph N/A Rain Rain
6:53 AM 41.0 °F 31.6 °F 39.2 °F 93% 29.81 in 3.0 mi SE 20.7 mph 26.5 mph N/A Rain Rain
7:53 AM 42.8 °F 34.5 °F 39.2 °F 87% 29.77 in 8.0 mi SSE 18.4 mph 27.6 mph N/A Rain Light Rain
8:53 AM 42.8 °F 34.3 °F 39.2 °F 87% 29.74 in 2.5 mi SE 19.6 mph 29.9 mph N/A Rain Light Rain
9:00 AM 42.1 °F 33.9 °F 39.9 °F 92% 29.73 in 4.0 mi SE 17.3 mph 24.2 mph 0.00 in Rain Light Rain
9:53 AM 42.8 °F 33.5 °F 41.0 °F 93% 29.73 in 4.0 mi SE 23.0 mph 29.9 mph N/A Rain Light Rain
10:53 AM 44.1 °F 35.7 °F 43.0 °F 96% 29.69 in 3.0 mi SE 20.7 mph 32.2 mph 0.14 in Rain Rain
11:53 AM 45.0 °F 36.0 °F 44.1 °F 97% 29.65 in 1.5 mi SE 25.3 mph - 0.15 in Rain Rain
12:53 PM 46.4 °F 39.0 °F 44.6 °F 93% 29.62 in 3.0 mi SE 19.6 mph - N/A Rain Rain
1:53 PM 46.9 °F - 45.0 °F 93% 29.61 in 3.0 mi SE 15.0 mph - 0.09 in Rain Light Rain
2:53 PM 46.9 °F - 45.0 °F 93% 29.61 in 4.0 mi SE 8.1 mph - 0.03 in Rain Light Rain
3:53 PM 46.0 °F 41.4 °F 45.0 °F 96% 29.60 in 10.0 mi SE 9.2 mph - 0.01 in   Overcast
4:53 PM 46.0 °F - 45.0 °F 96% 29.62 in 4.0 mi Calm Calm - 0.02 in Rain Light Rain
5:53 PM 45.0 °F 40.6 °F 44.1 °F 97% 29.64 in 10.0 mi WNW 8.1 mph - 0.03 in Rain Light Rain
6:53 PM 44.1 °F 40.8 °F 39.0 °F 82% 29.67 in 10.0 mi West 5.8 mph - 0.00 in   Scattered Clouds
7:53 PM 42.1 °F - 39.9 °F 92% 29.70 in 10.0 mi Calm Calm - N/A   Mostly Cloudy
8:53 PM 42.1 °F 37.7 °F 39.0 °F 89% 29.73 in 10.0 mi Variable 6.9 mph - 0.08 in Rain Light Rain
9:53 PM 42.1 °F 37.1 °F 39.9 °F 92% 29.75 in 7.0 mi NW 8.1 mph - 0.00 in Rain Light Rain
10:04 PM 42.1 °F 36.6 °F 39.0 °F 89% 29.76 in 10.0 mi NW 9.2 mph - 0.01 in Rain Light Rain
10:27 PM 42.1 °F 36.6 °F 37.9 °F 85% 29.78 in 10.0 mi WNW 9.2 mph - 0.01 in   Overcast
10:46 PM 42.1 °F 35.7 °F 37.0 °F 82% 29.79 in 10.0 mi WNW 11.5 mph - 0.01 in   Overcast
10:53 PM 42.1 °F 36.1 °F 37.0 °F 82% 29.80 in 10.0 mi WNW 10.4 mph - 0.01 in   Overcast
11:53 PM 39.9 °F 37.8 °F 36.0 °F 86% 29.83 in 10.0 mi Variable 3.5 mph - N/A   Mostly Cloudy